Regional Weather Roundup
Issued by NWS Newport/Morehead, NC

Current Version | Previous Version | Graphics & Text | Print | Product List | Glossary Off
Versions: 1 2 3 4 5 6 7 8 9 10 11 12 13 14 15 16 17 18 19 20 21 22 23 24 25 26 27 28 29 30 31 32 33 34 35 36 37 38 39 40 41 42 43 44 45 46 47 48 49 50

000
ASUS42 KMHX 171310
RWRMHX
WEATHER ROUNDUP FOR EASTERN NORTH CAROLINA
NATIONAL WEATHER SERVICE NEWPORT/MOREHEAD CITY NC
800 AM EST WED DEC 17 2014

NOTE: "FAIR" INDICATES FEW OR NO CLOUDS BELOW 12,000 FEET
WITH NO SIGNIFICANT WEATHER AND/OR OBSTRUCTIONS TO VISIBILITY

NCZ015>017-031-032-045>047-102-103-171400-
NORTH COAST

CITY           SKY/WX    TMP DP  RH WIND       PRES   REMARKS
EDENTON          N/A     44  41  88 NW7       30.04R
ELIZABETH CITY CLEAR     44  40  85 W6        30.04R
KITTY HAWK     SUNNY     46  46 100 W5        30.03R FOG
MANTEO         CLEAR     45  44  97 W3        30.05R

$$

NCZ045>047-081-094-103-104-171400-
CENTRAL COAST

CITY           SKY/WX    TMP DP  RH WIND       PRES   REMARKS
FRISCO         CLEAR     48  45  89 NW8       30.03S
SWANQUARTER      N/A     46 N/A N/A NW6       30.00S

$$

NCZ095-097-098-100-101-171400-
SOUTHERN COAST

CITY           SKY/WX    TMP DP  RH WIND       PRES   REMARKS
BEAUFORT       CLEAR     48  44  86 W8        30.07R
CEDAR ISLAND     N/A     48 N/A N/A W12       30.09R
JACKSONVILLE   CLEAR     44  41  89 W5        30.09R
PINEY ISLAND   SUNNY     50  43  77 W8        30.05R
WILMINGTON     CLEAR     46  43  89 CALM      30.10R


$$

NCZ011>013-027>030-043-044-078>080-089-090>093-098-171400-
COASTAL PLAIN

CITY           SKY/WX    TMP DP  RH WIND       PRES   REMARKS
AHOSKIE        CLEAR     39  38  97 CALM      30.06R
CLINTON        CLEAR     39  39 100 CALM      30.10R FOG
ELIZABETHTOWN  CLEAR     41  40  98 CALM      30.10R
GOLDSBORO      CLEAR     42  42  99 W1        30.07R
GREENVILLE     CLEAR     41  39  93 CALM      30.08R FOG
HAVELOCK       CLEAR     48  40  73 NW9       30.08R
KENANSVILLE    CLEAR     40  39  96 CALM      30.10R
KINSTON        CLEAR     45  41  87 W3        30.08R
NEW BERN       CLEAR     48  41  76 W5        30.08R
RICHLANDS      CLEAR     41  37  87 SW3       30.10R
ROCKY MOUNT    CLEAR     43  38  82 W3        30.07R
WASHINGTON     CLEAR     44  40  87 W3        30.06R
WHITEVILLE     CLEAR     42  40  94 CALM      30.11R

$$

AMZ130-135-150-152-154-156-158-170-250-252-270-ANZ085-086-088-633-658-670-171400-
MARINE OBSERVATIONS

STATION/POSITION TIME  TEMP    WIND        PRES    WAVE   SWELL
                       AIR SEA DIR/SP/G            HT/PER HT/PER
                 (UTC) (F)     (DEG/KT/KT) (MB)    (FT/S) (FT/S)
CHESAPEAKE LIGHT 1200   46     300/ 10/ 10 1016.3
64 E VA BEACH    1300   50 54  300/ 14/ 16 1015.4    4/ 7   2/ 7
DUCK             1300   45 48  280/  6/  8 1016.2
2 E DUCK         1300      48                N/A     2/ 9
10 NE DUCK       1300      51                N/A     2/ 8
OREGON INLET     1300   47 51  280/  7/  9 1016.7
13E OREGON INLT  1300      52                N/A     3/ 8
HATTERAS CG      1300   50 54  310/ 12/ 16 1017.1
DIAMOND BUOY     1300   54                 1016.7    6/ 8
17 S OCRACOKE    NOT AVBL
CAPE LOOKOUT     1200   51     320/ 12/ 14 1017.2
BEAUFORT LAB     1300   49 52  320/  4/  7 1017.0
30 SE NEW RIVER  1300   55 61  320/ 16/ 17 1018.9    5/ 7   3/ 7
5 SE WRIGHTSVLE  1200   48 55  310/ 14/ 16 1018.4
225 S CAPE HAT   1250   70 73  300/ 21/ 27 1017.4   10/ 8
41 SE CHARLESTON 1300   58 73  340/ 16/ 19 1019.7    4/ 6   2/11

$$


USA.gov is the U.S. government's official web portal to all federal, state and local government web resources and services.